Home > Weather > Moreno Valley > Past weeks

Flag for USA Past Weather in Moreno Valley, California, USA — Yesterday and Last 2 Weeks

Now
60 °F

Scattered clouds.


Feels Like: 60 °F
Forecast: 55 / 80 °F
Wind: 5 mph from Southeast

Location: Riverside / March Air Force Base

Current Time: May 27, 2016 at 9:27:11 AM

Latest Report: May 27, 2016 at 8:58 AM


Visibility: 10 mi

Pressure: 29.92 "Hg

Humidity: 82%

Dew Point: 54 °F

Location of Moreno ValleyLocation

Past Weather in Moreno Valley — Graph

°F

Moreno Valley Temperature Yesterday

Maximum temperature yesterday: 74 °F (at 4:58 PM)
Minimum temperature yesterday: 49 °F (at 4:58 AM)
Average temperature yesterday: 61 °F

High & Low Weather Summary for the Past Weeks

 TemperatureHumidityPressure
High91 °F (May 12, 11:58 AM)100% (May 13, 2:58 AM)30.08 "Hg (May 13, 2:58 AM)
Low48 °F (May 22, 5:58 AM)17% (May 12, 11:58 AM)29.78 "Hg (May 19, 4:58 PM)
Average63 °F69%29.93 "Hg
* Reported May 12 7:58 AM — May 27 7:58 AM, Moreno Valley, Weather by CustomWeather, © 2016

Note: Actual official high and low records may vary slightly from our data, if they occured in-between our weather recording intervals... More about our weather records

Advertising

Moreno Valley Weather History for the Previous 24 Hours

Scroll right to see more
 ConditionsComfort  
Time TempWeatherWind HumidityBarometerVisibility
7:58 AM
Fri, May 27
57 °FLow clouds.3 mph94%29.92 "Hg10 mi
6:58 AM56 °FLow clouds.1 mph97%29.94 "Hg10 mi
5:58 AM55 °FLow clouds.3 mph100%29.94 "Hg10 mi
4:58 AM54 °FLow clouds.6 mph100%29.93 "Hg10 mi
3:58 AM53 °FPassing clouds.5 mph100%29.94 "Hg10 mi
2:58 AM55 °FClear.6 mph91%29.94 "Hg10 mi
1:58 AM55 °FClear.3 mph86%29.95 "Hg10 mi
12:58 AM57 °FClear.3 mph80%29.96 "Hg10 mi
11:58 PM
Thu, May 26
59 °FClear.2 mph77%29.96 "Hg10 mi
10:58 PM60 °FClear.1 mph78%29.96 "Hg10 mi
9:58 PM60 °FClear.6 mph74%29.96 "Hg10 mi
8:58 PM62 °FClear.6 mph69%29.96 "Hg10 mi
7:58 PM64 °FSunny.10 mph63%29.95 "Hg10 mi
6:58 PM69 °FSunny.12 mph55%29.94 "Hg10 mi
5:58 PM72 °FSunny.15 mph48%29.93 "Hg10 mi
4:58 PM74 °FSunny.14 mph44%29.93 "Hg10 mi
3:58 PM74 °FSunny.8 mph42%29.94 "Hg10 mi
2:58 PM74 °FSunny.7 mph41%29.96 "Hg10 mi
1:58 PM73 °FSunny.7 mph42%29.99 "Hg10 mi
12:58 PM71 °FPassing clouds.8 mph42%30.00 "Hg10 mi
11:58 AM68 °FSunny.6 mph47%30.02 "Hg10 mi
10:58 AM64 °FSunny.1 mph55%30.03 "Hg10 mi
10:03 AM63 °FScattered clouds.5 mph59%30.06 "Hg10 mi
9:58 AM61 °FPartly sunny.3 mph62%30.04 "Hg10 mi
Weather by CustomWeather, © 2016

See weather overviewHow to use our weather pages